North Padre Island, TX

8:33 AM CDT on April 25, 2017 (GMT -0500)
North Padre Island

Weather History for KOPM - February, 2013

Change the Weather History Date:

Sunday, February 17, 2013

  Actual Average (KHRL) Record (KHRL)
Temperature  
Mean Temperature 64 °F 64 °F  
Max Temperature 68 °F 74 °F 94 °F (1927)
Min Temperature 60 °F 53 °F 33 °F (1946)
Degree Days  
Heating Degree Days 1 4  
Month to date heating degree days 81  
Since 1 July heating degree days 529  
Cooling Degree Days 0 3  
Month to date cooling degree days 42  
Year to date cooling degree days 91  
Growing Degree Days 14 (Base 50)    
Moisture  
Dew Point 49 °F    
Average Humidity 58    
Maximum Humidity 73    
Minimum Humidity 45    
Precipitation  
Precipitation 0.00 in 0.05 in 0.75 in (1957)
Month to date precipitation 1.00  
Year to date precipitation 2.06  
Sea Level Pressure  
Sea Level Pressure 30.16 in    
Wind  
Wind Speed 18 mph (SE)    
Max Wind Speed 29 mph    
Max Gust Speed 31 mph    
Visibility 10 miles    
Events      
T = Trace of Precipitation, MM = Missing Value Source: NWS Daily Summary

Daily Weather History Graph

Daily Weather History Graph

Search for Another Location

Airport or City:

Trip Planner

Search our weather history database for the weather conditions in past years. The results will help you decide how hot, cold, wet, or windy it might be!

Date:

Astronomy

Feb. 17, 2013 Rise Set
Actual Time 7:02 AM CST 6:21 PM CST
Civil Twilight 6:38 AM CST 6:45 PM CST
Nautical Twilight 6:11 AM CST 7:12 PM CST
Astronomical Twilight 5:44 AM CST 7:39 PM CST
Moon 11:39 AM CST (2/17) 12:36 AM CST (2/17)
Length of Visible Light 12h 06m
Length of Day
11h 19m
Waxing Crescent, 49% of the Moon is Illuminated
Feb 17
Waxing Crescent
Feb 17
First Quarter
Feb 25
Full
Mar 4
Last Quarter
Mar 11
New

Hourly Weather History & Observations

Time (CST) Temp. Dew Point Humidity Pressure Visibility Wind Dir Wind Speed Gust Speed Precip Events Conditions
12:15 AM 60.8 °F 39.2 °F 45% 30.30 in 10.0 mi SE 10.4 mph - N/A   Clear
12:35 AM 60.8 °F 39.2 °F 45% 30.29 in 10.0 mi SSE 10.4 mph - N/A   Clear
12:55 AM 60.8 °F 39.2 °F 45% 30.28 in 10.0 mi SSE 11.5 mph - N/A   Clear
1:15 AM 60.8 °F 39.2 °F 45% 30.28 in 10.0 mi SSE 12.7 mph - N/A   Clear
1:35 AM 60.8 °F 41.0 °F 48% 30.27 in 10.0 mi South 13.8 mph - N/A   Clear
1:55 AM 60.8 °F 41.0 °F 48% 30.27 in 10.0 mi SSE 13.8 mph - N/A   Clear
2:15 AM 60.8 °F 41.0 °F 48% 30.27 in 10.0 mi SSE 13.8 mph - N/A   Clear
2:35 AM 60.8 °F 42.8 °F 52% 30.25 in 10.0 mi South 13.8 mph - N/A   Clear
2:55 AM 60.8 °F 41.0 °F 48% 30.25 in 10.0 mi SSE 13.8 mph - N/A   Clear
3:15 AM 60.8 °F 42.8 °F 52% 30.24 in 10.0 mi SSE 16.1 mph - N/A   Clear
3:35 AM 60.8 °F 42.8 °F 52% 30.24 in 10.0 mi SE 15.0 mph - N/A   Clear
3:55 AM 60.8 °F 42.8 °F 52% 30.23 in 10.0 mi SE 13.8 mph - N/A   Clear
4:15 AM 60.8 °F 44.6 °F 55% 30.22 in 10.0 mi SE 13.8 mph - N/A   Clear
4:35 AM 60.8 °F 44.6 °F 55% 30.23 in 10.0 mi SSE 15.0 mph - N/A   Clear
4:55 AM 60.8 °F 44.6 °F 55% 30.23 in 10.0 mi SE 15.0 mph - N/A   Clear
5:15 AM 60.8 °F 44.6 °F 55% 30.22 in 10.0 mi SSE 16.1 mph - N/A   Clear
5:35 AM 62.6 °F 44.6 °F 52% 30.22 in 10.0 mi SE 15.0 mph - N/A   Clear
6:15 AM 62.6 °F 46.4 °F 55% 30.22 in 10.0 mi SE 15.0 mph - N/A   Clear
6:35 AM 62.6 °F 46.4 °F 55% 30.22 in 10.0 mi SE 16.1 mph 25.3 mph N/A   Clear
6:55 AM 62.6 °F 46.4 °F 55% 30.22 in 10.0 mi SE 16.1 mph - N/A   Clear
7:15 AM 62.6 °F 46.4 °F 55% 30.22 in 10.0 mi SE 15.0 mph - N/A   Clear
7:55 AM 64.4 °F 46.4 °F 52% 30.22 in 10.0 mi SE 18.4 mph - N/A   Clear
8:15 AM 64.4 °F 46.4 °F 52% 30.23 in 10.0 mi SE 16.1 mph - N/A   Clear
8:55 AM 64.4 °F 46.4 °F 52% 30.24 in 10.0 mi SE 17.3 mph - N/A   Clear
9:15 AM 64.4 °F 46.4 °F 52% 30.24 in 10.0 mi SE 19.6 mph - N/A   Clear
9:35 AM 64.4 °F 46.4 °F 52% 30.24 in 10.0 mi SE 19.6 mph - N/A   Clear
9:55 AM 64.4 °F 46.4 °F 52% 30.24 in 10.0 mi SE 20.7 mph - N/A   Partly Cloudy
10:15 AM 66.2 °F 46.4 °F 49% 30.25 in 10.0 mi SE 20.7 mph - N/A   Partly Cloudy
10:35 AM 66.2 °F 46.4 °F 49% 30.25 in 10.0 mi SE 21.9 mph - N/A   Partly Cloudy
10:55 AM 66.2 °F 46.4 °F 49% 30.24 in 10.0 mi SE 21.9 mph - N/A   Scattered Clouds
11:15 AM 66.2 °F 48.2 °F 52% 30.23 in 10.0 mi SE 20.7 mph - N/A   Scattered Clouds
11:35 AM 66.2 °F 46.4 °F 49% 30.22 in 10.0 mi SE 23.0 mph - N/A   Partly Cloudy
11:55 AM 66.2 °F 46.4 °F 49% 30.21 in 10.0 mi SE 21.9 mph - N/A   Clear
12:15 PM 66.2 °F 48.2 °F 52% 30.20 in 10.0 mi SE 23.0 mph - N/A   Partly Cloudy
12:35 PM 66.2 °F 50.0 °F 56% 30.18 in 10.0 mi SE 21.9 mph - N/A   Scattered Clouds
12:55 PM 66.2 °F 50.0 °F 56% 30.17 in 10.0 mi SE 23.0 mph - N/A   Mostly Cloudy
1:15 PM 66.2 °F 48.2 °F 52% 30.17 in 10.0 mi SE 24.2 mph - N/A   Mostly Cloudy
1:35 PM 66.2 °F 50.0 °F 56% 30.15 in 10.0 mi SE 21.9 mph - N/A   Mostly Cloudy
1:55 PM 66.2 °F 50.0 °F 56% 30.14 in 10.0 mi SE 24.2 mph - N/A   Partly Cloudy
2:15 PM 66.2 °F 50.0 °F 56% 30.13 in 10.0 mi SE 23.0 mph - N/A   Scattered Clouds
2:35 PM 66.2 °F 50.0 °F 56% 30.12 in 10.0 mi SE 25.3 mph - N/A   Scattered Clouds
2:55 PM 66.2 °F 51.8 °F 60% 30.11 in 10.0 mi SE 24.2 mph - N/A   Scattered Clouds
3:15 PM 66.2 °F 50.0 °F 56% 30.11 in 10.0 mi SE 24.2 mph - N/A   Scattered Clouds
3:35 PM 66.2 °F 50.0 °F 56% 30.10 in 10.0 mi SE 26.5 mph - N/A   Mostly Cloudy
3:55 PM 66.2 °F 51.8 °F 60% 30.08 in 10.0 mi SE 25.3 mph - N/A   Overcast
4:15 PM 66.2 °F 53.6 °F 64% 30.08 in 10.0 mi SE 26.5 mph - N/A   Overcast
4:35 PM 66.2 °F 53.6 °F 64% 30.08 in 10.0 mi SE 27.6 mph - N/A   Overcast
4:55 PM 66.2 °F 53.6 °F 64% 30.07 in 10.0 mi SE 26.5 mph - N/A   Overcast
5:15 PM 66.2 °F 53.6 °F 64% 30.07 in 10.0 mi SE 27.6 mph - N/A   Overcast
5:35 PM 66.2 °F 53.6 °F 64% 30.07 in 10.0 mi SE 26.5 mph - N/A   Overcast
5:55 PM 66.2 °F 55.4 °F 68% 30.07 in 10.0 mi SE 28.8 mph - N/A   Overcast
6:15 PM 66.2 °F 55.4 °F 68% 30.06 in 10.0 mi SE 27.6 mph - N/A   Overcast
6:35 PM 66.2 °F 55.4 °F 68% 30.06 in 10.0 mi SE 24.2 mph - N/A   Overcast
6:55 PM 66.2 °F 55.4 °F 68% 30.06 in 10.0 mi SE 27.6 mph - N/A   Overcast
7:15 PM 66.2 °F 55.4 °F 68% 30.06 in 10.0 mi SE 27.6 mph - N/A   Overcast
7:35 PM 66.2 °F 55.4 °F 68% 30.06 in 10.0 mi SE 26.5 mph - N/A   Overcast
7:55 PM 66.2 °F 57.2 °F 73% 30.06 in 10.0 mi SE 24.2 mph - N/A   Overcast
8:15 PM 66.2 °F 57.2 °F 73% 30.07 in 10.0 mi SE 26.5 mph - N/A   Overcast
8:35 PM 68.0 °F 55.4 °F 64% 30.06 in 10.0 mi SE 27.6 mph - N/A   Overcast
8:55 PM 68.0 °F 57.2 °F 68% 30.07 in 10.0 mi SE 25.3 mph 31.1 mph N/A   Overcast
9:15 PM 68.0 °F 57.2 °F 68% 30.07 in 10.0 mi SE 27.6 mph - N/A   Overcast
9:35 PM 68.0 °F 57.2 °F 68% 30.06 in 10.0 mi SE 25.3 mph - N/A   Overcast
9:55 PM 68.0 °F 57.2 °F 68% 30.06 in 10.0 mi SE 26.5 mph - N/A   Overcast
10:15 PM 68.0 °F 57.2 °F 68% 30.05 in 10.0 mi SE 25.3 mph 31.1 mph N/A   Overcast
10:35 PM 68.0 °F 57.2 °F 68% 30.05 in 10.0 mi SE 26.5 mph - N/A   Overcast
11:15 PM 68.0 °F 59.0 °F 73% 30.05 in 10.0 mi SE 24.2 mph - N/A   Overcast
11:35 PM 68.0 °F 59.0 °F 73% 30.03 in 9.0 mi SE 25.3 mph - N/A   Overcast
11:55 PM 68.0 °F 59.0 °F 73% 30.03 in 9.0 mi SE 25.3 mph - N/A   Overcast